This is the latest recevied weather packets stored in our database for station/object OE5RPP. If no packets are shown the sender has not sent any weather packets the latest 10 day(s).
| Time | Temp. | Humidity | Pressure | Rain* | Wind** | Luminosity | Snow |
|---|---|---|---|---|---|---|---|
| 1787770084 | 19.44° C | 34% | 1020.9 hPa | 0 mm | - | - | - |
| 1787769484 | 20° C | 32% | 1020.9 hPa | 0 mm | - | - | - |
| 1787768883 | 20.56° C | 31% | 1020.9 hPa | 0 mm | - | - | - |
| 1787768282 | 20.56° C | 30% | 1020.9 hPa | 0 mm | - | - | - |
| 1787767682 | 21.11° C | 29% | 1019.9 hPa | 0 mm | - | - | - |
| 1787767083 | 21.67° C | 22% | 1019.9 hPa | 0 mm | - | - | - |
| 1787766483 | 22.78° C | 22% | 1019.9 hPa | 0 mm | - | - | - |
| 1787765883 | 23.33° C | 18% | 1019.9 hPa | 0 mm | - | - | - |
| 1787765282 | 23.89° C | 18% | 1019.9 hPa | 0 mm | - | - | - |
| 1787764683 | 25° C | 17% | 1019.9 hPa | 0 mm | - | - | - |
| 1787764083 | 26.67° C | 17% | 1019.9 hPa | 0 mm | - | - | - |
| 1787763482 | 27.78° C | 15% | 1019.9 hPa | 0 mm | - | - | - |
| 1787762882 | 27.78° C | 15% | 1019.9 hPa | 0 mm | - | - | - |
| 1787762282 | 27.22° C | 15% | 1020.9 hPa | 0 mm | - | - | - |
| 1787761683 | 26.67° C | 17% | 1020.9 hPa | 0 mm | - | - | - |
| 1787761082 | 26.11° C | 17% | 1020.9 hPa | 0 mm | - | - | - |
| 1787760482 | 26.67° C | 17% | 1020.9 hPa | 0 mm | - | - | - |
| 1787759883 | 27.78° C | 15% | 1020.9 hPa | 0 mm | - | - | - |
| 1787759282 | 27.22° C | 15% | 1020.9 hPa | 0 mm | - | - | - |
| 1787758683 | 27.22° C | 15% | 1020.9 hPa | 0 mm | - | - | - |
| 1787758084 | 27.78° C | 15% | 1020.9 hPa | 0 mm | - | - | - |
| 1787757483 | 28.33° C | 15% | 1020.9 hPa | 0 mm | - | - | - |
| 1787756882 | 27.78° C | 15% | 1020.9 hPa | 0 mm | - | - | - |
| 1787756283 | 27.78° C | 15% | 1020.9 hPa | 0 mm | - | - | - |
| 1787755684 | 28.33° C | 15% | 1020.9 hPa | 0 mm | - | - | - |
* Rain latest hour (hover to see other rain measurements)
** Current wind speed in m/s (hover to see current wind gust speed)